QPF
0.03 0.03 0.03 0.02 0.01 0.01 0.01 0.01 0.01 0.01 0.02 0.03 0.03 0.02 0.01 0.00 0.00 0.01 0.01 0.02 0.02 0.02 0.02 0.03 0.03 0.02 0.02 0.02 0.02 0.02 0.03 0.03 0.02 0.02 0.02 0.03 0.02 0.02 0.03 0.03 0.04 0.03 0.03
0.04 0.03 0.03 0.03 0.02 0.02 0.02 0.01 0.00 0.01 0.01 0.02 0.04 0.04 0.03 0.01 0.01 0.01 0.02 0.02 0.02 0.02 0.02 0.02 0.02 0.02 0.02 0.02 0.02 0.01 0.01 0.02 0.02 0.02 0.01 0.01 0.02 0.02 0.03 0.03 0.03 0.03 0.03
0.05 0.03 0.03 0.03 0.02 0.02 0.02 0.01 0.01 0.01 0.01 0.02 0.03 0.04 0.05 0.03 0.01 0.01 0.01 0.01 0.02 0.02 0.02 0.02 0.02 0.02 0.02 0.02 0.02 0.01 0.01 0.01 0.01 0.01 0.01 0.01 0.01 0.02 0.02 0.03 0.03 0.03 0.03
0.05 0.04 0.03 0.03 0.02 0.02 0.02 0.02 0.01 0.01 0.01 0.02 0.02 0.03 0.04 0.04 0.03 0.01 0.01 0.01 0.01 0.02 0.02 0.03 0.02 0.02 0.02 0.02 0.02 0.02 0.01 0.01 0.01 0.02 0.01 0.01 0.01 0.01 0.02 0.02 0.03 0.03 0.03
0.06 0.05 0.04 0.03 0.03 0.03 0.02 0.02 0.02 0.01 0.01 0.01 0.01 0.02 0.02 0.02 0.02 0.01 0.01 0.00 0.01 0.02 0.02 0.03 0.02 0.02 0.02 0.02 0.02 0.02 0.02 0.01 0.01 0.01 0.02 0.02 0.01 0.01 0.01 0.02 0.02 0.03 0.03
0.08 0.06 0.06 0.05 0.06 0.05 0.03 0.02 0.03 0.02 0.01 0.01 0.01 0.02 0.02 0.02 0.02 0.02 0.01 0.01 0.01 0.02 0.03 0.03 0.03 0.02 0.02 0.02 0.02 0.02 0.02 0.01 0.01 0.01 0.02 0.02 0.02 0.01 0.01 0.01 0.02 0.02 0.03
0.08 0.07 0.06 0.07 0.07 0.07 0.05 0.03 0.03 0.03 0.02 0.02 0.01 0.01 0.02 0.03 0.02 0.02 0.02 0.02 0.01 0.01 0.02 0.04 0.04 0.04 0.03 0.03 0.02 0.02 0.02 0.02 0.02 0.01 0.02 0.02 0.02 0.02 0.01 0.01 0.02 0.02 0.03
0.08 0.06 0.04 0.05 0.05 0.05 0.05 0.04 0.03 0.03 0.04 0.05 0.03 0.02 0.02 0.03 0.03 0.03 0.02 0.02 0.02 0.02 0.02 0.03 0.04 0.05 0.04 0.03 0.03 0.02 0.02 0.02 0.02 0.02 0.02 0.02 0.03 0.03 0.02 0.01 0.02 0.02 0.02
0.07 0.06 0.04 0.05 0.05 0.04 0.04 0.04 0.03 0.02 0.03 0.04 0.04 0.04 0.03 0.03 0.04 0.04 0.04 0.04 0.03 0.03 0.02 0.03 0.03 0.04 0.04 0.04 0.03 0.02 0.02 0.02 0.01 0.02 0.02 0.02 0.03 0.03 0.04 0.02 0.02 0.02 0.02
0.08 0.07 0.05 0.04 0.05 0.04 0.03 0.03 0.03 0.03 0.03 0.03 0.03 0.03 0.03 0.03 0.03 0.04 0.04 0.04 0.04 0.04 0.03 0.03 0.03 0.03 0.04 0.04 0.04 0.03 0.03 0.02 0.02 0.01 0.02 0.02 0.03 0.04 0.04 0.04 0.02 0.03 0.03
0.07 0.06 0.06 0.05 0.06 0.06 0.06 0.05 0.04 0.04 0.03 0.03 0.03 0.02 0.02 0.02 0.02 0.02 0.02 0.02 0.03 0.03 0.03 0.04 0.04 0.04 0.04 0.05 0.04 0.03 0.02 0.02 0.02 0.01 0.01 0.02 0.03 0.03 0.04 0.04 0.04 0.04 0.03
0.08 0.05 0.04 0.05 0.07 0.08 0.08 0.07 0.05 0.05 0.04 0.03 0.03 0.02 0.01 0.01 0.02 0.02 0.02 0.01 0.01 0.02 0.02 0.03 0.05 0.05 0.04 0.05 0.05 0.04 0.02 0.02 0.02 0.02 0.02 0.02 0.03 0.03 0.04 0.05 0.05 0.05 0.04
0.05 0.05 0.03 0.03 0.04 0.06 0.07 0.07 0.06 0.06 0.06 0.05 0.04 0.03 0.03 0.03 0.02 0.02 0.02 0.01 0.01 0.01 0.02 0.02 0.03 0.04 0.04 0.05 0.06 0.06 0.04 0.03 0.03 0.02 0.02 0.02 0.02 0.04 0.05 0.07 0.06 0.06 0.05
0.04 0.03 0.04 0.03 0.03 0.04 0.05 0.06 0.06 0.06 0.05 0.04 0.03 0.03 0.02 0.02 0.02 0.02 0.02 0.02 0.02 0.01 0.01 0.01 0.02 0.04 0.05 0.05 0.06 0.07 0.06 0.04 0.03 0.04 0.03 0.02 0.03 0.03 0.04 0.07 0.07 0.06 0.05
0.04 0.04 0.03 0.03 0.03 0.04 0.04 0.05 0.05 0.06 0.05 0.05 0.03 0.03 0.02 0.02 0.02 0.02 0.02 0.02 0.02 0.02 0.02 0.01 0.01 0.03 0.05 0.05 0.05 0.05 0.06 0.06 0.06 0.06 0.05 0.03 0.03 0.03 0.03 0.04 0.05 0.05 0.05
0.04 0.04 0.04 0.03 0.03 0.04 0.04 0.04 0.04 0.04 0.04 0.04 0.04 0.03 0.03 0.02 0.02 0.02 0.02 0.01 0.02 0.02 0.02 0.01 0.01 0.02 0.03 0.05 0.05 0.04 0.05 0.06 0.06 0.07 0.06 0.04 0.03 0.04 0.04 0.04 0.05 0.04 0.04
0.04 0.04 0.04 0.04 0.03 0.04 0.04 0.04 0.04 0.04 0.04 0.05 0.04 0.04 0.03 0.03 0.02 0.02 0.02 0.02 0.02 0.03 0.03 0.02 0.01 0.02 0.03 0.04 0.04 0.04 0.04 0.04 0.05 0.07 0.09 0.07 0.05 0.05 0.06 0.06 0.05 0.04 0.03
0.03 0.04 0.04 0.04 0.04 0.04 0.04 0.05 0.05 0.04 0.04 0.04 0.05 0.04 0.04 0.04 0.03 0.03 0.02 0.02 0.02 0.03 0.04 0.04 0.03 0.02 0.02 0.02 0.03 0.04 0.05 0.05 0.05 0.06 0.08 0.10 0.09 0.06 0.06 0.06 0.06 0.03 0.02
0.05 0.04 0.05 0.04 0.04 0.05 0.04 0.04 0.04 0.05 0.06 0.05 0.06 0.06 0.05 0.05 0.05 0.04 0.04 0.04 0.03 0.04 0.04 0.04 0.03 0.02 0.01 0.02 0.02 0.03 0.05 0.06 0.07 0.07 0.07 0.08 0.10 0.10 0.07 0.05 0.05 0.04 0.02
0.07 0.07 0.06 0.05 0.06 0.06 0.06 0.05 0.05 0.05 0.06 0.06 0.06 0.06 0.06 0.06 0.06 0.05 0.06 0.05 0.05 0.05 0.05 0.04 0.03 0.02 0.02 0.02 0.02 0.04 0.05 0.07 0.08 0.09 0.10 0.09 0.09 0.09 0.09 0.07 0.05 0.04 0.02
0.08 0.09 0.09 0.07 0.05 0.06 0.07 0.07 0.07 0.07 0.07 0.07 0.07 0.07 0.07 0.07 0.06 0.06 0.05 0.05 0.05 0.06 0.06 0.05 0.04 0.03 0.03 0.03 0.03 0.04 0.05 0.07 0.09 0.09 0.10 0.10 0.08 0.07 0.07 0.08 0.06 0.04 0.03
0.07 0.08 0.09 0.09 0.08 0.06 0.07 0.08 0.07 0.07 0.07 0.07 0.08 0.09 0.08 0.08 0.06 0.05 0.04 0.04 0.04 0.05 0.06 0.05 0.04 0.03 0.03 0.03 0.03 0.04 0.06 0.08 0.10 0.09 0.09 0.10 0.09 0.07 0.05 0.05 0.06 0.04 0.03
0.08 0.09 0.10 0.10 0.11 0.10 0.10 0.11 0.12 0.10 0.09 0.09 0.08 0.07 0.07 0.07 0.07 0.06 0.05 0.04 0.03 0.04 0.05 0.05 0.04 0.03 0.03 0.02 0.03 0.04 0.05 0.08 0.09 0.09 0.09 0.10 0.10 0.09 0.06 0.05 0.05 0.05 0.05
0.08 0.08 0.08 0.09 0.10 0.12 0.13 0.13 0.13 0.11 0.10 0.08 0.07 0.06 0.05 0.05 0.05 0.05 0.04 0.03 0.03 0.03 0.03 0.04 0.04 0.03 0.02 0.02 0.03 0.04 0.05 0.07 0.09 0.08 0.08 0.08 0.08 0.09 0.08 0.07 0.06 0.06 0.06
0.08 0.07 0.06 0.06 0.07 0.08 0.10 0.09 0.09 0.08 0.08 0.08 0.07 0.06 0.06 0.05 0.05 0.05 0.04 0.03 0.03 0.03 0.03 0.03 0.03 0.03 0.04 0.03 0.03 0.03 0.05 0.06 0.08 0.08 0.08 0.07 0.06 0.06 0.07 0.07 0.07 0.07 0.06
0.08 0.07 0.07 0.07 0.08 0.09 0.09 0.08 0.08 0.07 0.08 0.08 0.08 0.07 0.07 0.06 0.06 0.05 0.05 0.05 0.04 0.04 0.03 0.03 0.03 0.03 0.03 0.03 0.04 0.04 0.05 0.06 0.07 0.07 0.06 0.06 0.05 0.05 0.06 0.07 0.07 0.07 0.07
MSLP
1017.54 1017.94 1018.28 1018.59 1018.90 1019.22 1019.54 1019.84 1020.11 1020.31 1020.43 1020.46 1020.42 1020.34 1020.26 1020.21 1020.22 1020.31 1020.45 1020.62 1020.79 1020.93 1021.00 1020.99 1020.91 1020.76 1020.57 1020.37 1020.18 1019.99 1019.82 1019.64 1019.45 1019.24 1018.99 1018.71 1018.42 1018.13 1017.87 1017.65 1017.49 1017.39 1017.34
1017.14 1017.58 1017.95 1018.29 1018.62 1018.95 1019.29 1019.61 1019.91 1020.14 1020.30 1020.37 1020.36 1020.30 1020.22 1020.15 1020.12 1020.14 1020.22 1020.34 1020.47 1020.59 1020.67 1020.70 1020.67 1020.59 1020.48 1020.33 1020.18 1020.02 1019.86 1019.67 1019.46 1019.20 1018.91 1018.59 1018.26 1017.93 1017.63 1017.38 1017.20 1017.09 1017.05
1016.74 1017.21 1017.63 1018.01 1018.37 1018.73 1019.09 1019.43 1019.75 1020.02 1020.22 1020.33 1020.36 1020.33 1020.25 1020.16 1020.09 1020.05 1020.06 1020.11 1020.18 1020.27 1020.35 1020.41 1020.44 1020.43 1020.39 1020.32 1020.23 1020.12 1019.97 1019.79 1019.56 1019.27 1018.94 1018.57 1018.18 1017.80 1017.46 1017.17 1016.96 1016.83 1016.79
1016.38 1016.89 1017.35 1017.78 1018.18 1018.57 1018.95 1019.31 1019.64 1019.93 1020.16 1020.32 1020.39 1020.40 1020.34 1020.25 1020.15 1020.06 1020.00 1019.98 1019.99 1020.04 1020.10 1020.17 1020.24 1020.30 1020.33 1020.34 1020.32 1020.26 1020.15 1019.97 1019.73 1019.42 1019.04 1018.63 1018.19 1017.75 1017.36 1017.02 1016.78 1016.63 1016.57
1016.07 1016.61 1017.12 1017.59 1018.03 1018.44 1018.83 1019.20 1019.54 1019.85 1020.11 1020.30 1020.43 1020.48 1020.46 1020.39 1020.29 1020.17 1020.06 1019.98 1019.93 1019.93 1019.96 1020.03 1020.12 1020.22 1020.32 1020.39 1020.43 1020.42 1020.34 1020.19 1019.94 1019.61 1019.21 1018.75 1018.27 1017.78 1017.34 1016.96 1016.67 1016.48 1016.39
1015.79 1016.36 1016.91 1017.42 1017.89 1018.32 1018.71 1019.08 1019.42 1019.73 1020.01 1020.25 1020.43 1020.55 1020.59 1020.57 1020.50 1020.38 1020.25 1020.12 1020.02 1019.97 1019.96 1020.00 1020.09 1020.21 1020.35 1020.47 1020.56 1020.59 1020.55 1020.42 1020.18 1019.84 1019.42 1018.94 1018.42 1017.90 1017.41 1016.99 1016.66 1016.42 1016.29
1015.49 1016.09 1016.67 1017.22 1017.72 1018.16 1018.55 1018.90 1019.23 1019.55 1019.85 1020.13 1020.37 1020.57 1020.70 1020.75 1020.73 1020.64 1020.51 1020.37 1020.23 1020.12 1020.07 1020.08 1020.15 1020.27 1020.42 1020.57 1020.70 1020.77 1020.76 1020.65 1020.43 1020.10 1019.68 1019.19 1018.65 1018.11 1017.60 1017.14 1016.76 1016.48 1016.29
1015.14 1015.76 1016.37 1016.95 1017.47 1017.92 1018.31 1018.66 1018.98 1019.30 1019.62 1019.94 1020.24 1020.52 1020.73 1020.88 1020.93 1020.90 1020.79 1020.65 1020.49 1020.35 1020.26 1020.23 1020.27 1020.38 1020.53 1020.69 1020.84 1020.93 1020.95 1020.87 1020.68 1020.37 1019.97 1019.49 1018.96 1018.42 1017.89 1017.41 1017.00 1016.66 1016.41
1014.69 1015.34 1015.99 1016.60 1017.14 1017.61 1018.00 1018.34 1018.66 1018.98 1019.32 1019.67 1020.04 1020.38 1020.69 1020.91 1021.05 1021.08 1021.02 1020.89 1020.73 1020.58 1020.46 1020.40 1020.42 1020.50 1020.65 1020.81 1020.97 1021.09 1021.14 1021.09 1020.93 1020.66 1020.29 1019.84 1019.34 1018.81 1018.29 1017.80 1017.36 1016.98 1016.67
1014.16 1014.83 1015.51 1016.15 1016.72 1017.21 1017.62 1017.97 1018.29 1018.62 1018.97 1019.35 1019.76 1020.16 1020.53 1020.83 1021.03 1021.12 1021.11 1021.02 1020.88 1020.73 1020.61 1020.54 1020.55 1020.63 1020.77 1020.94 1021.11 1021.25 1021.32 1021.31 1021.18 1020.96 1020.63 1020.22 1019.76 1019.26 1018.75 1018.26 1017.81 1017.39 1017.02
1013.54 1014.24 1014.95 1015.63 1016.24 1016.75 1017.19 1017.55 1017.89 1018.22 1018.59 1018.99 1019.42 1019.86 1020.27 1020.62 1020.88 1021.02 1021.06 1021.02 1020.91 1020.79 1020.69 1020.64 1020.66 1020.75 1020.89 1021.07 1021.26 1021.41 1021.51 1021.52 1021.43 1021.24 1020.96 1020.60 1020.18 1019.71 1019.24 1018.76 1018.29 1017.85 1017.43
1012.89 1013.61 1014.35 1015.06 1015.70 1016.25 1016.71 1017.10 1017.46 1017.81 1018.19 1018.60 1019.04 1019.49 1019.92 1020.30 1020.59 1020.78 1020.87 1020.88 1020.83 1020.77 1020.71 1020.71 1020.76 1020.88 1021.04 1021.24 1021.43 1021.60 1021.70 1021.73 1021.66 1021.50 1021.26 1020.93 1020.55 1020.13 1019.69 1019.22 1018.76 1018.29 1017.83
1012.21 1012.95 1013.71 1014.44 1015.11 1015.70 1016.20 1016.62 1017.01 1017.38 1017.77 1018.18 1018.62 1019.08 1019.51 1019.90 1020.22 1020.45 1020.60 1020.67 1020.69 1020.70 1020.72 1020.78 1020.89 1021.05 1021.24 1021.45 1021.65 1021.81 1021.91 1021.93 1021.87 1021.72 1021.50 1021.20 1020.86 1020.47 1020.06 1019.61 1019.15 1018.68 1018.18
1011.53 1012.28 1013.05 1013.80 1014.49 1015.10 1015.64 1016.10 1016.52 1016.92 1017.33 1017.75 1018.19 1018.65 1019.08 1019.48 1019.83 1020.10 1020.30 1020.45 1020.56 1020.66 1020.78 1020.91 1021.09 1021.29 1021.51 1021.73 1021.92 1022.05 1022.13 1022.13 1022.04 1021.89 1021.67 1021.39 1021.07 1020.72 1020.33 1019.91 1019.46 1018.98 1018.46
1010.83 1011.60 1012.37 1013.12 1013.83 1014.46 1015.03 1015.53 1015.99 1016.43 1016.86 1017.31 1017.77 1018.23 1018.68 1019.10 1019.47 1019.80 1020.07 1020.30 1020.51 1020.71 1020.92 1021.14 1021.38 1021.63 1021.86 1022.07 1022.23 1022.32 1022.35 1022.30 1022.18 1022.00 1021.77 1021.50 1021.20 1020.87 1020.51 1020.12 1019.68 1019.21 1018.69
1010.11 1010.89 1011.67 1012.42 1013.13 1013.78 1014.38 1014.92 1015.42 1015.91 1016.39 1016.87 1017.36 1017.85 1018.33 1018.79 1019.21 1019.60 1019.95 1020.27 1020.58 1020.88 1021.17 1021.48 1021.77 1022.04 1022.27 1022.45 1022.57 1022.60 1022.56 1022.46 1022.29 1022.07 1021.83 1021.56 1021.27 1020.97 1020.64 1020.27 1019.86 1019.40 1018.88
1009.37 1010.16 1010.94 1011.69 1012.41 1013.08 1013.70 1014.28 1014.84 1015.38 1015.92 1016.46 1017.00 1017.54 1018.07 1018.59 1019.07 1019.53 1019.96 1020.37 1020.76 1021.15 1021.53 1021.88 1022.21 1022.49 1022.70 1022.84 1022.90 1022.87 1022.76 1022.59 1022.37 1022.13 1021.87 1021.61 1021.34 1021.06 1020.76 1020.43 1020.04 1019.59 1019.08
1008.59 1009.41 1010.21 1010.97 1011.69 1012.38 1013.03 1013.66 1014.27 1014.87 1015.48 1016.09 1016.70 1017.31 1017.90 1018.48 1019.04 1019.57 1020.07 1020.56 1021.03 1021.48 1021.91 1022.30 1022.64 1022.91 1023.10 1023.19 1023.18 1023.09 1022.92 1022.70 1022.45 1022.19 1021.93 1021.68 1021.44 1021.20 1020.93 1020.62 1020.26 1019.83 1019.32
1007.81 1008.67 1009.49 1010.27 1011.02 1011.73 1012.41 1013.08 1013.75 1014.42 1015.09 1015.78 1016.46 1017.14 1017.81 1018.46 1019.08 1019.67 1020.24 1020.78 1021.30 1021.80 1022.25 1022.66 1022.99 1023.24 1023.40 1023.44 1023.40 1023.26 1023.05 1022.81 1022.55 1022.29 1022.05 1021.83 1021.62 1021.41 1021.18 1020.89 1020.55 1020.13 1019.63
1007.03 1007.95 1008.81 1009.63 1010.41 1011.15 1011.88 1012.59 1013.31 1014.04 1014.78 1015.53 1016.29 1017.03 1017.76 1018.47 1019.14 1019.78 1020.39 1020.96 1021.51 1022.02 1022.48 1022.89 1023.21 1023.44 1023.57 1023.59 1023.52 1023.36 1023.15 1022.91 1022.67 1022.44 1022.24 1022.05 1021.89 1021.71 1021.50 1021.24 1020.91 1020.49 1019.99
1006.30 1007.28 1008.21 1009.07 1009.89 1010.67 1011.44 1012.20 1012.96 1013.74 1014.54 1015.35 1016.15 1016.95 1017.72 1018.47 1019.17 1019.84 1020.46 1021.05 1021.60 1022.11 1022.56 1022.95 1023.26 1023.48 1023.60 1023.62 1023.55 1023.42 1023.23 1023.03 1022.83 1022.65 1022.49 1022.36 1022.23 1022.09 1021.90 1021.65 1021.31 1020.88 1020.37
1005.64 1006.69 1007.67 1008.59 1009.46 1010.29 1011.09 1011.89 1012.69 1013.51 1014.35 1015.19 1016.03 1016.86 1017.66 1018.42 1019.14 1019.81 1020.43 1021.01 1021.55 1022.05 1022.49 1022.87 1023.17 1023.39 1023.52 1023.57 1023.53 1023.44 1023.31 1023.17 1023.03 1022.91 1022.81 1022.72 1022.63 1022.51 1022.33 1022.07 1021.73 1021.28 1020.75
1005.06 1006.16 1007.21 1008.18 1009.10 1009.97 1010.81 1011.64 1012.47 1013.32 1014.18 1015.04 1015.90 1016.74 1017.55 1018.31 1019.03 1019.69 1020.30 1020.87 1021.39 1021.87 1022.30 1022.68 1022.98 1023.22 1023.38 1023.47 1023.49 1023.46 1023.40 1023.32 1023.25 1023.20 1023.15 1023.11 1023.04 1022.93 1022.76 1022.49 1022.13 1021.67 1021.12
1004.57 1005.71 1006.80 1007.82 1008.77 1009.68 1010.55 1011.40 1012.26 1013.12 1013.99 1014.86 1015.73 1016.57 1017.38 1018.14 1018.84 1019.50 1020.10 1020.65 1021.16 1021.63 1022.06 1022.44 1022.76 1023.02 1023.23 1023.36 1023.44 1023.48 1023.49 1023.49 1023.49 1023.49 1023.49 1023.47 1023.43 1023.33 1023.15 1022.88 1022.50 1022.03 1021.47
1004.15 1005.31 1006.42 1007.46 1008.44 1009.37 1010.26 1011.13 1012.00 1012.87 1013.75 1014.63 1015.50 1016.34 1017.15 1017.91 1018.62 1019.27 1019.86 1020.41 1020.92 1021.39 1021.83 1022.22 1022.56 1022.86 1023.10 1023.29 1023.43 1023.52 1023.60 1023.65 1023.70 1023.74 1023.78 1023.79 1023.76 1023.67 1023.49 1023.22 1022.85 1022.37 1021.82
1003.81 1004.95 1006.05 1007.09 1008.08 1009.02 1009.93 1010.81 1011.69 1012.57 1013.45 1014.34 1015.22 1016.07 1016.89 1017.66 1018.38 1019.04 1019.64 1020.20 1020.72 1021.20 1021.65 1022.06 1022.43 1022.75 1023.02 1023.25 1023.43 1023.57 1023.68 1023.78 1023.86 1023.93 1023.99 1024.02 1024.01 1023.93 1023.77 1023.52 1023.16 1022.72 1022.19
Thickness
5677 5676 5675 5674 5673 5672 5671 5671 5671 5671 5671 5671 5671 5670 5670 5671 5669 5668 5666 5666 5666 5666 5665 5664 5663 5662 5661 5659 5657 5656 5654 5652 5651 5649 5648 5646 5645 5644 5642 5641 5640 5638 5637
5672 5670 5670 5669 5668 5667 5666 5666 5666 5666 5665 5665 5665 5665 5665 5665 5664 5663 5661 5661 5660 5660 5659 5658 5657 5656 5655 5654 5652 5650 5648 5646 5645 5643 5642 5640 5639 5638 5637 5635 5634 5632 5631
5665 5664 5663 5663 5662 5662 5661 5661 5660 5660 5659 5659 5659 5659 5659 5659 5659 5658 5657 5656 5654 5653 5653 5652 5651 5650 5649 5648 5646 5644 5642 5640 5638 5637 5635 5634 5633 5632 5630 5629 5627 5626 5624
5658 5657 5657 5656 5656 5656 5656 5655 5654 5653 5652 5652 5652 5652 5653 5653 5653 5652 5651 5650 5649 5648 5646 5645 5644 5643 5641 5641 5640 5638 5636 5634 5632 5630 5629 5627 5626 5625 5624 5622 5621 5619 5618
5650 5650 5650 5649 5649 5649 5648 5648 5647 5646 5645 5644 5645 5646 5646 5647 5647 5646 5645 5645 5644 5642 5641 5639 5637 5636 5634 5633 5632 5631 5629 5627 5625 5624 5622 5620 5619 5618 5617 5615 5614 5613 5611
5642 5642 5642 5642 5641 5641 5640 5640 5639 5639 5638 5637 5638 5638 5639 5640 5640 5639 5639 5638 5637 5636 5634 5633 5631 5629 5627 5625 5624 5623 5621 5620 5618 5617 5615 5614 5612 5611 5610 5609 5607 5605 5604
5633 5634 5634 5633 5633 5633 5633 5632 5631 5630 5629 5629 5627 5628 5630 5633 5633 5632 5632 5631 5630 5629 5627 5625 5623 5621 5619 5617 5615 5614 5614 5612 5611 5610 5609 5607 5606 5604 5603 5601 5600 5598 5596
5625 5625 5625 5625 5625 5625 5625 5624 5623 5621 5620 5620 5618 5616 5618 5620 5623 5625 5623 5623 5622 5620 5619 5617 5615 5613 5611 5609 5607 5605 5604 5604 5603 5602 5601 5600 5599 5597 5596 5594 5592 5590 5587
5615 5616 5616 5617 5616 5616 5616 5616 5615 5614 5612 5611 5611 5608 5606 5607 5610 5613 5614 5614 5612 5610 5609 5608 5607 5605 5603 5601 5599 5597 5596 5595 5594 5594 5594 5593 5591 5590 5588 5586 5583 5581 5579
5607 5608 5608 5608 5608 5608 5608 5608 5608 5607 5605 5603 5602 5602 5601 5601 5598 5600 5603 5604 5603 5601 5600 5599 5598 5597 5595 5593 5591 5589 5588 5586 5585 5585 5584 5584 5583 5581 5579 5577 5574 5572 5570
5597 5599 5599 5599 5600 5599 5599 5599 5599 5599 5597 5596 5595 5594 5593 5592 5592 5589 5591 5592 5593 5593 5591 5590 5589 5588 5586 5584 5583 5581 5579 5577 5577 5576 5575 5574 5573 5572 5570 5567 5565 5562 5560
5587 5588 5589 5589 5590 5590 5590 5590 5589 5589 5589 5589 5588 5586 5585 5583 5582 5581 5580 5581 5582 5583 5582 5581 5580 5578 5577 5576 5574 5572 5571 5570 5568 5567 5566 5564 5563 5561 5559 5557 5555 5553 5550
5578 5579 5580 5580 5580 5580 5581 5580 5580 5580 5580 5580 5579 5578 5577 5577 5576 5574 5572 5571 5571 5573 5573 5571 5571 5570 5568 5566 5564 5563 5562 5560 5559 5558 5557 5555 5553 5551 5549 5547 5545 5543 5540
5569 5570 5570 5570 5570 5571 5570 5571 5571 5570 5570 5570 5570 5569 5568 5568 5566 5565 5562 5560 5559 5561 5561 5561 5561 5560 5558 5557 5555 5554 5552 5550 5549 5548 5547 5545 5543 5541 5539 5537 5535 5533 5530
5559 5559 5560 5560 5560 5561 5561 5561 5561 5561 5560 5561 5560 5559 5558 5558 5556 5555 5553 5550 5546 5545 5550 5551 5549 5550 5547 5546 5545 5543 5542 5540 5540 5538 5537 5536 5533 5532 5530 5528 5526 5523 5520
5550 5550 5550 5550 5550 5551 5552 5552 5551 5551 5551 5551 5550 5549 5548 5547 5545 5544 5542 5540 5538 5536 5536 5541 5539 5538 5536 5535 5534 5532 5531 5530 5529 5528 5527 5526 5524 5522 5520 5518 5516 5513 5511
5541 5541 5542 5541 5541 5542 5542 5542 5542 5541 5541 5541 5540 5539 5538 5537 5535 5533 5532 5530 5528 5526 5524 5527 5528 5527 5525 5524 5523 5521 5520 5519 5519 5518 5517 5516 5515 5513 5511 5509 5507 5504 5501
5531 5531 5532 5532 5531 5532 5532 5533 5533 5533 5532 5531 5530 5529 5528 5527 5525 5523 5521 5520 5518 5517 5514 5514 5516 5515 5514 5513 5512 5511 5510 5509 5508 5508 5507 5507 5506 5504 5502 5500 5497 5494 5491
5520 5520 5521 5521 5522 5522 5522 5523 5522 5522 5522 5521 5520 5520 5519 5517 5514 5512 5511 5509 5508 5507 5504 5502 5503 5504 5503 5502 5500 5499 5498 5498 5497 5497 5497 5497 5496 5494 5492 5490 5487 5484 5481
5510 5509 5510 5510 5511 5512 5513 5512 5512 5512 5512 5511 5510 5510 5509 5507 5504 5502 5500 5499 5497 5495 5493 5491 5492 5492 5491 5490 5488 5486 5486 5486 5487 5487 5487 5487 5486 5483 5481 5479 5477 5474 5470
5499 5498 5498 5499 5501 5502 5502 5502 5502 5502 5501 5500 5500 5499 5498 5497 5495 5492 5490 5489 5487 5485 5482 5481 5480 5480 5479 5478 5475 5475 5474 5474 5476 5476 5475 5475 5475 5473 5470 5467 5464 5462 5459
5488 5488 5488 5489 5490 5492 5493 5493 5492 5491 5491 5490 5489 5489 5488 5486 5484 5482 5480 5478 5477 5476 5473 5471 5469 5469 5468 5466 5465 5463 5462 5461 5464 5465 5463 5463 5461 5460 5458 5456 5453 5451 5448
5478 5477 5478 5479 5480 5481 5482 5483 5483 5481 5479 5479 5478 5477 5476 5474 5472 5470 5468 5467 5467 5465 5464 5462 5460 5459 5457 5456 5454 5453 5451 5450 5451 5452 5451 5452 5450 5447 5446 5444 5441 5439 5437
5468 5467 5467 5468 5469 5469 5471 5472 5472 5469 5467 5466 5465 5464 5464 5462 5460 5458 5457 5457 5455 5454 5453 5452 5451 5451 5448 5446 5443 5442 5441 5441 5441 5440 5439 5438 5437 5436 5435 5432 5430 5428 5426
5458 5457 5456 5457 5457 5458 5459 5459 5459 5456 5455 5454 5453 5452 5452 5451 5450 5449 5447 5446 5445 5444 5443 5442 5441 5440 5439 5437 5434 5432 5430 5430 5430 5429 5427 5424 5424 5424 5424 5422 5419 5417 5415
5448 5447 5446 5446 5446 5446 5446 5446 5445 5444 5442 5441 5441 5441 5441 5440 5440 5438 5436 5434 5432 5432 5432 5431 5430 5429 5428 5426 5425 5423 5421 5419 5418 5418 5417 5413 5412 5410 5410 5410 5408 5406 5404